DT_LEITURA;HR_LEITURA;MED-PressaoAtm[hPa];VAL-TempExt[oC];VAL-UmidExt[%UR];VAL-TempInt[oC];VAL-UmidInt[%UR];Dir-Vento[grau];Vel-Vento[m/s];Precipitação[mm/h]
27/08/2026;00:04:00;1013,8;;;19,4;77;24;4,7;0,0
27/08/2026;00:09:00;1013,8;;;19,4;77;24;4,9;0,0
27/08/2026;00:14:00;1013,7;;;19,4;77;25;5,8;0,0
27/08/2026;00:19:00;1013,7;;;19,4;77;24;5,7;0,0
27/08/2026;00:24:00;1013,7;;;19,4;77;23;5,3;0,0
27/08/2026;00:29:00;1013,5;;;19,5;77;25;6,5;0,0
27/08/2026;00:34:00;1013,4;;;19,5;77;27;5,8;0,0
27/08/2026;00:39:00;1013,4;;;19,4;77;25;4,7;0,0
27/08/2026;00:44:00;1013,4;;;19,4;77;25;4,8;0,0
27/08/2026;00:49:00;1013,3;;;19,4;77;26;4,8;0,0
27/08/2026;00:54:00;1013,3;;;19,4;77;25;4,5;0,0
27/08/2026;00:59:00;1013,3;;;19,4;77;24;6,1;0,0
27/08/2026;01:04:00;1013,3;;;19,4;77;22;6,0;0,0
27/08/2026;01:09:00;1013,3;;;19,4;77;22;6,0;0,0
27/08/2026;01:14:00;1013,3;;;19,4;77;24;5,5;0,0
27/08/2026;01:19:00;1013,3;;;19,4;77;22;4,9;0,0
27/08/2026;01:24:00;1013,3;;;19,3;77;25;4,8;0,0
27/08/2026;01:29:00;1013,3;;;19,3;77;24;5,4;0,0
27/08/2026;01:34:00;1013,2;;;19,3;78;23;5,3;0,0
27/08/2026;01:39:00;1013,2;;;19,3;78;23;5,3;0,0
27/08/2026;01:44:00;1013,1;;;19,3;78;22;5,6;0,0
27/08/2026;01:49:00;1013,0;;;19,3;78;23;5,8;0,0
27/08/2026;01:54:00;1013,1;;;19,3;78;23;5,7;0,0
27/08/2026;01:59:00;1013,0;;;19,3;78;23;5,8;0,0
27/08/2026;02:04:00;1012,9;;;19,4;78;23;5,1;0,0
27/08/2026;02:09:00;1012,9;;;19,4;78;23;5,3;0,0
27/08/2026;02:14:00;1012,9;;;19,4;78;22;5,3;0,0
27/08/2026;02:19:00;1012,8;;;19,4;78;20;5,3;0,0
27/08/2026;02:24:00;1012,7;;;19,4;78;24;5,3;0,0
27/08/2026;02:29:00;1012,7;;;19,4;78;24;4,6;0,0
27/08/2026;02:34:00;1012,8;;;19,4;78;25;4,1;0,0
27/08/2026;02:39:00;1012,8;;;19,4;78;24;4,0;0,0
27/08/2026;02:44:00;1012,7;;;19,4;78;22;4,5;0,0
27/08/2026;02:49:00;1012,8;;;19,4;78;19;4,4;0,0
27/08/2026;02:54:00;1012,7;;;19,4;78;21;4,4;0,0
27/08/2026;02:59:00;1012,7;;;19,3;78;23;4,2;0,0
27/08/2026;03:04:00;1012,6;;;19,3;78;24;4,0;0,0
27/08/2026;03:09:00;1012,5;;;19,3;78;20;3,9;0,0
27/08/2026;03:14:00;1012,3;;;19,3;78;19;3,7;0,0
27/08/2026;03:19:00;1012,3;;;19,3;78;21;3,3;0,0
27/08/2026;03:24:00;1012,2;;;19,3;78;18;3,3;0,0
27/08/2026;03:29:00;1012,1;;;19,2;78;17;3,2;0,0
27/08/2026;03:34:00;1012,0;;;19,2;78;21;4,1;0,0
27/08/2026;03:39:00;1012,0;;;19,2;78;19;4,4;0,0
27/08/2026;03:44:00;1012,0;;;19,2;78;16;3,5;0,0
27/08/2026;03:49:00;1012,0;;;19,2;78;16;4,5;0,0
27/08/2026;03:54:00;1011,9;;;19,2;78;17;4,6;0,0
27/08/2026;03:59:00;1011,9;;;19,2;78;16;4,8;0,0
27/08/2026;04:04:00;1011,9;;;19,2;78;23;4,9;0,0
27/08/2026;04:09:00;1011,9;;;19,3;78;21;4,4;0,0
27/08/2026;04:14:00;1011,9;;;19,3;78;20;4,7;0,0
27/08/2026;04:19:00;1011,8;;;19,3;78;21;5,1;0,0
27/08/2026;04:24:00;1011,7;;;19,3;78;25;4,8;0,0
27/08/2026;04:29:00;1011,8;;;19,3;78;19;4,1;0,0
27/08/2026;04:34:00;1011,8;;;19,3;78;17;4,3;0,0
27/08/2026;04:39:00;1011,8;;;19,3;78;13;4,5;0,0
27/08/2026;04:44:00;1011,7;;;19,3;78;14;3,6;0,0
27/08/2026;04:49:00;1011,7;;;19,3;78;9;3,6;0,0
27/08/2026;04:54:00;1011,7;;;19,3;78;16;4,2;0,0
27/08/2026;04:59:00;1011,7;;;19,3;78;20;4,5;0,0
27/08/2026;05:04:00;1011,7;;;19,2;78;14;4,1;0,0
27/08/2026;05:09:00;1011,6;;;19,2;78;17;3,9;0,0
27/08/2026;05:14:00;1011,6;;;19,2;78;19;4,2;0,0
27/08/2026;05:19:00;1011,6;;;19,2;78;12;3,9;0,0
27/08/2026;05:24:00;1011,6;;;19,2;78;23;5,3;0,0
27/08/2026;05:29:00;1011,6;;;19,2;78;22;5,3;0,0
27/08/2026;05:34:00;1011,7;;;19,2;78;21;5,4;0,0
27/08/2026;05:39:00;1011,7;;;19,2;78;22;5,5;0,0
27/08/2026;05:44:00;1011,6;;;19,2;78;22;5,8;0,0
27/08/2026;05:49:00;1011,7;;;19,2;78;22;5,8;0,0
27/08/2026;05:54:00;1011,8;;;19,3;78;19;4,7;0,0
27/08/2026;05:59:00;1011,8;;;19,3;78;16;5,0;0,0
27/08/2026;06:04:00;1011,9;;;19,3;78;18;5,1;0,0
27/08/2026;06:09:00;1011,9;;;19,3;78;21;5,0;0,0
27/08/2026;06:14:00;1012,0;;;19,3;78;19;4,8;0,0
27/08/2026;06:19:00;1012,1;;;19,3;78;20;4,9;0,0
27/08/2026;06:24:00;1012,1;;;19,3;78;19;5,3;0,0
27/08/2026;06:29:00;1012,2;;;19,3;78;19;5,4;0,0
27/08/2026;06:34:00;1012,1;;;19,3;78;22;5,4;0,0
27/08/2026;06:39:00;1012,1;;;19,4;78;20;5,1;0,0
27/08/2026;06:44:00;1012,1;;;19,4;78;23;5,4;0,0
27/08/2026;06:49:00;1012,1;;;19,4;79;24;5,6;0,0
27/08/2026;06:54:00;1012,1;;;19,4;79;25;5,4;0,0
27/08/2026;06:59:00;1012,1;;;19,4;79;18;5,5;0,0
27/08/2026;07:04:00;1012,2;;;19,4;79;20;5,1;0,0
27/08/2026;07:09:00;1012,2;;;19,5;79;22;4,8;0,0
27/08/2026;07:14:00;1012,2;;;19,5;79;22;5,5;0,0
27/08/2026;07:19:00;1012,2;;;19,5;79;19;5,0;0,0
27/08/2026;07:24:00;1012,2;;;19,5;78;21;5,3;0,0
27/08/2026;07:29:00;1012,2;;;19,5;78;22;5,5;0,0
27/08/2026;07:34:00;1012,3;;;19,6;78;24;5,3;0,0
27/08/2026;07:39:00;1012,3;;;19,6;78;21;5,6;0,0
27/08/2026;07:44:00;1012,3;;;19,6;78;25;6,5;0,0
27/08/2026;07:49:00;1012,4;;;19,7;79;18;6,4;0,0
27/08/2026;07:54:00;1012,4;;;19,7;79;20;5,7;0,0
27/08/2026;07:59:00;1012,4;;;19,8;79;21;5,7;0,0
27/08/2026;08:04:00;1012,4;;;19,8;79;21;5,8;0,0
27/08/2026;08:09:00;1012,5;;;19,8;79;19;5,4;0,0
27/08/2026;08:14:00;1012,5;;;19,9;79;17;5,9;0,0
27/08/2026;08:19:00;1012,5;;;20,0;79;23;6,1;0,0
27/08/2026;08:24:00;1012,5;;;20,1;80;22;5,8;0,0
27/08/2026;08:29:00;1012,6;;;20,1;80;22;5,6;0,0
27/08/2026;08:34:00;1012,6;;;20,2;80;20;5,9;0,0
27/08/2026;08:39:00;1012,7;;;20,4;81;22;6,1;0,0
27/08/2026;08:44:00;1012,7;;;20,5;81;22;6,0;0,0
27/08/2026;08:49:00;1012,8;;;20,6;81;21;5,9;0,0
27/08/2026;08:54:00;1012,7;;;20,7;80;23;5,5;0,0
27/08/2026;08:59:00;1012,8;;;20,9;80;23;4,8;0,0
27/08/2026;09:04:00;1012,7;;;21,0;80;27;5,8;0,0
27/08/2026;09:09:00;1012,8;;;21,1;80;24;5,5;0,0
27/08/2026;09:14:00;1012,8;;;21,2;80;25;5,8;0,0
27/08/2026;09:19:00;1012,9;;;21,2;79;26;5,4;0,0
27/08/2026;09:24:00;1012,9;;;21,3;79;30;4,8;0,0
27/08/2026;09:29:00;1012,9;;;21,4;79;24;5,6;0,0
27/08/2026;09:34:00;1012,9;;;21,4;79;24;5,6;0,0
27/08/2026;09:39:00;1012,8;;;21,5;79;23;5,7;0,0
27/08/2026;09:44:00;1012,9;;;21,6;79;27;5,5;0,0
27/08/2026;09:49:00;1012,8;;;21,7;79;25;5,1;0,0
27/08/2026;09:54:00;1012,8;;;21,8;79;25;5,4;0,0
27/08/2026;09:59:00;1012,8;;;22,0;79;26;5,4;0,0
27/08/2026;10:04:00;1012,7;;;22,0;79;24;5,8;0,0
27/08/2026;10:09:00;1012,7;;;22,1;79;23;6,4;0,0
27/08/2026;10:14:00;1012,8;;;22,2;79;22;5,9;0,0
27/08/2026;10:19:00;1012,7;;;22,2;79;21;5,9;0,0
27/08/2026;10:24:00;1012,7;;;22,3;79;20;5,8;0,0
27/08/2026;10:29:00;1012,6;;;22,3;79;18;6,3;0,0
27/08/2026;10:34:00;1012,6;;;22,4;79;21;5,8;0,0
27/08/2026;10:39:00;1012,6;;;22,5;79;26;6,2;0,0
27/08/2026;10:44:00;1012,6;;;22,5;79;26;6,0;0,0
27/08/2026;10:49:00;1012,6;;;22,6;79;22;5,9;0,0
27/08/2026;10:54:00;1012,4;;;22,6;78;23;6,3;0,0
27/08/2026;10:59:00;1012,3;;;22,6;78;25;6,8;0,0
27/08/2026;11:04:00;1012,3;;;22,6;78;25;6,2;0,0
27/08/2026;11:09:00;1012,3;;;22,6;78;20;5,8;0,0
27/08/2026;11:14:00;1012,2;;;22,7;79;21;5,6;0,0
27/08/2026;11:19:00;1012,1;;;22,7;78;24;7,7;0,0
27/08/2026;11:24:00;1012,0;;;22,7;78;22;7,2;0,0
27/08/2026;11:29:00;1011,9;;;22,7;78;25;7,3;0,0
27/08/2026;11:34:00;1011,8;;;22,7;78;22;7,5;0,0
27/08/2026;11:39:00;1011,6;;;22,7;78;28;7,9;0,0
27/08/2026;11:44:00;1011,5;;;22,6;78;23;7,5;0,0
27/08/2026;11:49:00;1011,4;;;22,6;78;24;6,6;0,0
27/08/2026;11:54:00;1011,3;;;22,7;78;23;7,3;0,0
27/08/2026;11:59:00;1011,2;;;22,7;78;24;8,6;0,0
27/08/2026;12:04:00;1011,1;;;22,7;78;25;8,0;0,0
27/08/2026;12:09:00;1011,1;;;22,7;78;23;8,9;0,0
27/08/2026;12:14:00;1011,0;;;22,7;78;23;8,1;0,0
27/08/2026;12:19:00;1010,9;;;22,7;78;23;8,0;0,0
27/08/2026;12:24:00;1010,8;;;22,7;78;21;8,4;0,0
27/08/2026;12:29:00;1010,7;;;22,7;78;23;9,6;0,0
27/08/2026;12:34:00;1010,7;;;22,7;78;25;7,5;0,0
27/08/2026;12:39:00;1010,5;;;22,7;78;27;7,6;0,0
27/08/2026;12:44:00;1010,5;;;22,7;78;24;7,6;0,0
27/08/2026;12:49:00;1010,4;;;22,7;78;26;7,6;0,0
27/08/2026;12:54:00;1010,2;;;22,8;78;28;7,2;0,0
27/08/2026;12:59:00;1010,1;;;22,8;78;25;7,5;0,0
27/08/2026;13:04:00;1010,0;;;22,8;78;24;7,4;0,0
27/08/2026;13:09:00;1010,1;;;22,9;78;21;7,7;0,0
27/08/2026;13:14:00;1010,0;;;23,0;78;23;7,4;0,0
27/08/2026;13:19:00;1009,9;;;23,1;78;23;7,1;0,0
27/08/2026;13:24:00;1009,8;;;23,2;78;21;6,8;0,0
27/08/2026;13:29:00;1009,7;;;23,3;78;24;7,9;0,0
27/08/2026;13:34:00;1009,6;;;23,4;78;22;8,1;0,0
27/08/2026;13:39:00;1009,5;;;23,5;78;25;7,1;0,0
27/08/2026;13:44:00;1009,3;;;23,5;77;28;6,7;0,0
27/08/2026;13:49:00;1009,1;;;23,5;77;26;7,1;0,0
27/08/2026;13:54:00;1009,0;;;23,6;77;26;7,4;0,0
27/08/2026;13:59:00;1008,9;;;23,5;77;23;7,1;0,0
27/08/2026;14:04:00;1008,8;;;23,5;77;22;7,2;0,0
27/08/2026;14:09:00;1008,6;;;23,5;77;24;7,9;0,0
27/08/2026;14:14:00;1008,4;;;23,5;77;25;8,5;0,0
27/08/2026;14:19:00;1008,3;;;23,5;77;23;7,3;0,0
27/08/2026;14:24:00;1008,3;;;23,5;77;26;8,1;0,0
27/08/2026;14:29:00;1008,2;;;23,5;77;27;7,6;0,0
27/08/2026;14:34:00;1008,1;;;23,6;77;28;8,1;0,0
27/08/2026;14:39:00;1008,0;;;23,6;77;26;8,4;0,0
27/08/2026;14:44:00;1007,9;;;23,6;77;26;9,2;0,0
27/08/2026;14:49:00;1007,9;;;23,6;77;23;7,7;0,0
27/08/2026;14:54:00;1007,9;;;23,6;77;26;7,4;0,0
27/08/2026;14:59:00;1007,8;;;23,7;77;27;5,9;0,0
27/08/2026;15:04:00;1007,8;;;23,7;77;25;7,0;0,0
27/08/2026;15:09:00;1007,7;;;23,7;76;24;7,6;0,0
27/08/2026;15:14:00;1007,7;;;23,7;76;28;7,8;0,0
27/08/2026;15:19:00;1007,7;;;23,7;76;28;8,6;0,0
27/08/2026;15:24:00;1007,7;;;23,6;76;24;9,4;0,0
27/08/2026;15:29:00;1007,7;;;23,5;76;24;8,9;0,0
27/08/2026;15:34:00;1007,7;;;23,4;76;25;8,2;0,0
27/08/2026;15:39:00;1007,8;;;23,3;76;23;7,1;0,0
27/08/2026;15:44:00;1007,6;;;23,3;76;24;8,2;0,0
27/08/2026;15:49:00;1007,6;;;23,3;76;22;7,4;0,0
27/08/2026;15:54:00;1007,6;;;23,2;76;24;7,6;0,0
27/08/2026;15:59:00;1007,7;;;23,2;76;23;6,9;0,0
27/08/2026;16:04:00;1007,7;;;23,2;76;24;7,1;0,0
27/08/2026;16:09:00;1007,7;;;23,2;76;22;7,0;0,0
27/08/2026;16:14:00;1007,7;;;23,2;76;26;8,0;0,0
27/08/2026;16:19:00;1007,6;;;23,2;76;27;8,0;0,0
27/08/2026;16:24:00;1007,6;;;23,2;76;27;7,4;0,0
27/08/2026;16:29:00;1007,6;;;23,2;76;27;6,1;0,0
27/08/2026;16:34:00;1007,5;;;23,2;76;27;6,8;0,0
27/08/2026;16:39:00;1007,6;;;23,2;76;24;7,9;0,0
27/08/2026;16:44:00;1007,6;;;23,1;75;24;8,4;0,0
27/08/2026;16:49:00;1007,7;;;23,0;75;24;8,0;0,0
27/08/2026;16:54:00;1007,8;;;22,9;76;26;6,8;0,0
27/08/2026;16:59:00;1007,8;;;22,8;76;23;6,9;0,0
27/08/2026;17:04:00;1007,7;;;22,9;76;19;6,7;0,0
27/08/2026;17:09:00;1007,8;;;22,9;76;19;6,6;0,0
27/08/2026;17:14:00;1008,0;;;22,9;76;18;5,6;0,0
27/08/2026;17:19:00;1008,1;;;22,9;76;21;6,6;0,0
27/08/2026;17:24:00;1008,2;;;22,9;76;22;5,8;0,0
27/08/2026;17:29:00;1008,2;;;22,9;76;24;6,5;0,0
27/08/2026;17:34:00;1008,3;;;22,9;75;23;6,7;0,0
27/08/2026;17:39:00;1008,3;;;22,7;75;20;6,9;0,0
27/08/2026;17:44:00;1008,3;;;22,6;76;20;6,9;0,0
27/08/2026;17:49:00;1008,3;;;22,5;76;20;6,7;0,0
27/08/2026;17:54:00;1008,3;;;22,3;76;22;7,1;0,0
27/08/2026;17:59:00;1008,3;;;22,2;76;25;7,0;0,0
27/08/2026;18:04:00;1008,4;;;22,1;76;23;5,5;0,0
27/08/2026;18:09:00;1008,3;;;22,0;77;21;5,3;0,0
27/08/2026;18:14:00;1008,3;;;21,9;77;25;5,4;0,0
27/08/2026;18:19:00;1008,4;;;21,9;77;21;5,1;0,0
27/08/2026;18:24:00;1008,4;;;21,8;77;21;5,8;0,0
27/08/2026;18:29:00;1008,5;;;21,8;77;25;6,6;0,0
27/08/2026;18:34:00;1008,6;;;21,7;77;24;6,5;0,0
27/08/2026;18:39:00;1008,6;;;21,6;77;24;6,6;0,0
27/08/2026;18:44:00;1008,6;;;21,6;77;21;7,2;0,0
27/08/2026;18:49:00;1008,6;;;21,5;77;19;7,6;0,0
27/08/2026;18:54:00;1008,7;;;21,5;77;21;8,4;0,0
27/08/2026;18:59:00;1008,7;;;21,5;77;23;8,6;0,0
27/08/2026;19:04:00;1008,7;;;21,5;77;22;8,8;0,0
27/08/2026;19:09:00;1008,9;;;21,5;77;23;8,2;0,0
27/08/2026;19:14:00;1009,1;;;21,5;77;25;7,0;0,0
27/08/2026;19:19:00;1009,2;;;21,4;77;23;7,1;0,0
27/08/2026;19:24:00;1009,3;;;21,4;77;26;6,9;0,0
27/08/2026;19:29:00;1009,3;;;21,4;77;26;7,9;0,0
27/08/2026;19:34:00;1009,3;;;21,4;77;24;7,6;0,0
27/08/2026;19:39:00;1009,2;;;21,3;77;22;7,5;0,0
27/08/2026;19:44:00;1009,1;;;21,3;77;22;7,5;0,0
27/08/2026;19:49:00;1009,1;;;21,3;77;24;7,5;0,0
27/08/2026;19:54:00;1009,1;;;21,3;77;23;6,9;0,0
27/08/2026;19:59:00;1009,1;;;21,3;77;21;7,2;0,0
27/08/2026;20:04:00;1009,1;;;21,3;77;25;7,3;0,0
27/08/2026;20:09:00;1009,1;;;21,2;77;24;6,6;0,0
27/08/2026;20:14:00;1009,1;;;21,2;77;22;6,8;0,0
27/08/2026;20:19:00;1009,1;;;21,2;77;20;7,0;0,0
27/08/2026;20:24:00;1009,2;;;21,2;77;23;6,7;0,0
27/08/2026;20:29:00;1009,1;;;21,2;77;25;7,1;0,0
27/08/2026;20:34:00;1009,3;;;21,2;77;26;7,0;0,0
27/08/2026;20:39:00;1009,3;;;21,2;77;23;6,2;0,0
27/08/2026;20:44:00;1009,2;;;21,2;77;26;6,1;0,0
27/08/2026;20:49:00;1009,2;;;21,2;77;25;6,3;0,0
27/08/2026;20:54:00;1009,3;;;21,1;77;23;6,1;0,0
27/08/2026;20:59:00;1009,2;;;21,1;77;21;6,7;0,0
27/08/2026;21:04:00;1009,2;;;21,1;77;25;7,7;0,0
27/08/2026;21:09:00;1009,1;;;21,1;77;26;7,1;0,0
27/08/2026;21:14:00;1009,1;;;21,1;77;27;6,9;0,0
27/08/2026;21:19:00;1009,0;;;21,1;77;25;6,8;0,0
27/08/2026;21:24:00;1009,0;;;21,1;77;28;6,5;0,0
27/08/2026;21:29:00;1009,0;;;21,0;77;27;6,6;0,0
27/08/2026;21:34:00;1009,0;;;21,0;77;24;6,7;0,0
27/08/2026;21:39:00;1008,9;;;20,9;77;24;6,8;0,0
27/08/2026;21:44:00;1008,9;;;20,9;77;26;8,0;0,0
27/08/2026;21:49:00;1009,0;;;20,9;77;27;7,9;0,0
27/08/2026;21:54:00;1009,0;;;20,9;77;24;7,6;0,0
27/08/2026;21:59:00;1008,8;;;20,9;78;25;8,0;0,0
27/08/2026;22:04:00;1008,8;;;20,9;78;25;8,0;0,0
27/08/2026;22:09:00;1008,6;;;20,9;78;25;8,6;0,0
27/08/2026;22:14:00;1008,5;;;20,9;78;24;8,3;0,0
27/08/2026;22:19:00;1008,6;;;20,9;78;21;7,7;0,0
27/08/2026;22:24:00;1008,6;;;20,9;78;23;7,2;0,0
27/08/2026;22:29:00;1008,5;;;20,9;78;20;6,8;0,0
27/08/2026;22:34:00;1008,5;;;20,9;78;25;6,6;0,0
27/08/2026;22:39:00;1008,4;;;20,9;78;26;5,4;0,0
27/08/2026;22:44:00;1008,3;;;20,9;78;24;7,1;0,0
27/08/2026;22:49:00;1008,4;;;20,9;78;25;7,0;0,0
27/08/2026;22:54:00;1008,3;;;20,9;78;22;6,7;0,0
27/08/2026;22:59:00;1008,2;;;20,9;78;22;6,8;0,0
27/08/2026;23:04:00;1008,1;;;20,9;78;20;6,6;0,0
27/08/2026;23:09:00;1008,0;;;21,0;78;22;7,2;0,0
27/08/2026;23:14:00;1007,9;;;21,0;78;26;7,2;0,0
27/08/2026;23:19:00;1007,9;;;21,1;78;25;6,7;0,0
27/08/2026;23:24:00;1007,9;;;21,1;78;22;6,7;0,0
27/08/2026;23:29:00;1007,9;;;21,1;78;24;6,8;0,0
27/08/2026;23:34:00;1007,8;;;21,1;78;21;7,8;0,0
27/08/2026;23:39:00;1007,8;;;21,2;78;24;7,9;0,0
27/08/2026;23:44:00;1007,8;;;21,2;78;21;8,1;0,0
27/08/2026;23:49:00;1007,8;;;21,2;78;24;8,2;0,0
27/08/2026;23:54:00;1007,8;;;21,2;78;22;7,4;0,0
27/08/2026;23:59:00;1007,7;;;21,2;78;23;7,5;0,0
